Powrót do katalogu

STARLINK-36283

AktywnyŁącznośćVLEO
NORAD 67197·PAYLOAD·🇺🇸 United States

Wystrzelony Dec 17, 2025 z Vandenberg Space Force Base

Loading…

Następne Przeloty (najbliższe 24 godziny)

TLE

ŚwieżeSource: CelesTrak SupGP

Epoka: Sep 14, 2026, 21:28 UTC

1 67197C 25304F   26257.89493056  .00041697  00000+0  34942-2 0  2577
2 67197  70.0012  57.2776 0002805 275.1837 271.8933 14.98311811    15

Śledź STARLINK-36283 w czasie rzeczywistym z AllMySat

Download on the App Store